Theta_e
356 357 358 358 359 362 360 362 363 364 365 364 366 365 363 361 362 362 361 359 357 354 349 345 343 341 332 333 336 335 332 331 326 337 342 343 339 337 332 336 333 337 337
355 357 356 359 360 359 360 360 363 364 367 366 366 365 364 363 362 360 358 356 356 353 349 345 342 336 339 339 334 337 333 334 329 338 340 335 337 336 336 336 332 331 336
354 354 355 356 358 358 360 361 362 364 365 365 365 364 364 363 361 360 359 357 356 354 350 345 342 338 336 331 334 332 331 333 335 332 333 335 334 333 332 333 334 336 334
354 355 356 357 358 358 360 363 361 366 366 366 365 365 364 363 361 359 358 358 357 353 350 346 343 338 336 335 334 335 334 333 334 331 331 330 331 333 331 328 326 329 330
357 356 357 361 362 363 362 364 363 365 366 369 368 365 364 362 358 359 358 357 356 353 350 346 342 339 337 335 331 336 340 333 328 328 328 328 329 327 328 327 324 326 330
359 359 361 362 364 363 364 364 368 364 365 370 369 367 365 359 345 344 354 356 356 352 347 344 342 336 334 332 333 333 337 336 337 327 327 327 331 330 328 325 322 320 317
360 362 362 364 363 365 365 365 365 364 366 368 367 367 368 367 339 340 344 355 354 352 349 344 338 332 333 333 330 328 328 327 326 336 333 331 332 333 332 328 326 322 321
362 364 365 368 366 367 363 363 363 363 364 365 365 368 367 365 334 334 340 352 349 343 342 341 341 339 334 334 332 330 330 330 330 330 334 334 335 334 332 328 328 330 327
350 353 357 362 366 367 364 365 362 361 363 363 366 367 366 358 328 329 336 337 333 330 330 331 330 333 330 328 332 329 329 327 319 324 326 327 326 327 328 325 322 319 318
350 352 355 357 358 360 366 366 369 366 363 364 364 366 353 359 325 327 335 337 331 329 330 327 328 328 325 323 331 331 326 325 323 323 323 322 325 323 322 329 323 319 320
353 353 355 356 357 357 362 368 369 367 364 358 355 358 355 347 334 324 327 336 334 333 331 325 326 322 317 317 320 330 327 328 322 322 320 321 323 323 323 327 331 325 321
351 353 354 355 353 351 357 360 365 366 357 349 347 347 347 349 330 322 323 323 331 330 328 327 325 319 314 314 317 321 319 322 321 320 320 321 321 322 324 327 331 332 329
345 347 350 354 354 355 354 354 351 352 351 345 344 340 340 344 344 322 319 321 322 331 328 323 317 311 311 312 315 317 318 323 323 320 320 321 323 324 329 330 331 334 333
338 343 346 348 348 351 351 351 349 345 344 347 347 344 344 347 343 333 326 325 322 326 322 319 317 314 313 314 314 318 323 324 324 322 322 323 324 324 324 325 322 323 322
333 333 337 339 342 343 348 346 347 349 342 347 349 348 345 343 338 325 325 331 330 326 322 319 316 314 311 312 312 317 320 324 323 322 323 321 321 320 320 322 321 322 321
331 326 324 326 334 340 340 343 321 319 313 311 310 321 343 320 311 311 308 308 309 310 319 317 317 317 312 311 316 318 321 323 321 321 324 322 319 318 319 322 324 323 322
334 332 328 324 327 331 332 338 337 331 311 308 306 306 307 315 306 306 306 308 306 310 320 321 318 319 316 314 319 323 320 321 322 319 319 319 319 319 320 322 323 324 323
331 319 329 327 331 331 330 334 336 336 337 340 316 311 306 304 303 302 304 306 310 314 321 323 322 322 321 320 320 322 322 319 318 321 320 319 320 321 321 321 322 323 323
325 325 326 328 334 331 332 334 335 335 337 338 333 315 310 301 300 302 303 321 317 317 321 322 324 321 322 324 323 321 322 322 326 323 320 320 321 321 321 322 324 315 318
323 321 323 329 332 332 333 334 334 335 333 334 332 329 318 311 313 311 313 321 319 320 321 321 320 322 321 320 320 320 318 320 323 325 322 321 322 322 322 323 324 323 324
320 322 323 326 329 330 331 331 332 334 332 333 334 332 310 318 320 317 315 321 322 321 321 322 322 322 319 319 320 316 317 321 326 326 326 323 322 321 323 323 324 325 324
321 321 322 324 326 329 331 332 333 332 333 332 333 333 304 319 323 321 319 321 324 324 324 323 322 320 320 320 321 321 322 325 325 326 326 325 324 323 323 323 324 323 321
322 324 324 323 325 324 329 332 331 331 333 332 334 332 323 322 324 323 319 321 322 325 326 323 322 322 323 325 327 325 324 324 325 327 325 324 323 324 324 324 322 320 323
324 324 323 327 325 325 326 329 330 322 331 333 334 331 331 327 325 323 321 321 321 321 321 320 322 325 328 325 324 326 327 326 323 325 326 323 323 320 323 323 322 322 323
324 324 323 321 322 326 327 327 328 330 332 334 333 331 330 325 321 322 321 321 320 320 321 322 324 320 322 322 325 326 314 301 320 313 325 325 324 324 322 321 321 322 325
324 325 324 322 321 322 325 328 327 329 332 334 331 333 329 326 327 325 322 319 319 320 320 321 321 320 324 326 325 311 293 294 306 299 323 325 323 323 323 323 322 324 319
Wind_Speed
16 16 15 16 16 15 14 14 14 13 13 13 13 13 13 13 12 11 10 7 9 7 6 7 8 5 6 5 5 5 6 6 7 6 7 7 6 6 7 5 8 7 9
14 14 16 15 14 15 15 15 15 14 14 14 14 15 15 14 13 13 13 10 11 10 9 8 7 6 8 6 6 5 6 5 8 6 7 8 9 8 7 5 5 4 6
14 14 14 16 16 17 16 16 16 15 15 15 14 15 14 15 15 14 14 13 12 10 9 10 9 9 9 8 8 6 7 6 6 5 6 8 8 7 8 5 5 2 5
11 12 13 14 15 15 15 15 17 16 16 16 15 15 15 15 15 15 15 14 13 13 13 13 12 11 11 11 9 8 6 6 7 8 8 8 8 9 8 8 7 7 6
10 11 11 11 11 11 12 13 15 16 16 16 16 16 16 16 13 16 16 15 15 14 14 12 12 12 11 10 9 10 8 9 8 10 8 8 9 9 9 6 6 5 4
10 12 11 11 12 13 13 14 14 15 15 15 17 18 19 15 16 17 17 16 16 15 14 13 12 11 10 9 9 5 8 10 8 8 9 9 9 9 7 6 6 5 5
13 7 8 8 10 12 11 14 15 16 16 17 16 17 17 18 19 23 23 16 15 15 13 12 11 9 11 12 9 5 5 4 5 9 8 8 10 9 7 6 4 6 5
3 2 3 2 7 11 12 13 14 14 15 15 16 17 17 14 12 13 16 10 3 3 5 8 8 6 9 10 11 11 12 12 10 9 9 8 7 9 8 6 8 5 4
6 7 8 6 6 7 8 10 11 13 14 15 14 15 16 11 15 20 17 8 11 12 12 9 9 8 7 6 12 13 12 12 6 6 10 11 12 7 8 9 9 9 8
4 4 4 5 6 7 7 7 8 11 11 10 12 13 15 12 19 24 21 12 15 13 17 19 22 15 16 14 11 11 12 12 11 10 8 9 11 7 2 9 9 8 6
3 5 5 5 6 6 7 6 9 10 10 9 10 9 10 14 19 31 29 16 10 7 8 10 12 19 15 18 15 11 11 10 11 12 11 10 10 10 8 7 5 5 5
4 5 5 6 5 6 7 7 7 8 9 8 8 6 8 12 16 22 25 16 8 9 10 10 11 22 16 19 14 11 9 13 11 11 11 11 11 10 11 10 8 7 5
6 7 7 6 6 5 6 6 5 5 5 6 7 6 7 10 11 17 20 14 13 12 11 12 17 16 16 13 13 10 12 11 10 11 11 11 10 10 10 10 8 8 8
6 8 9 9 7 7 4 4 5 4 6 6 7 8 9 9 8 7 9 12 15 9 12 11 11 11 11 8 10 9 9 10 9 11 10 10 10 10 9 8 10 9 9
7 8 9 9 9 9 7 5 6 8 8 8 9 9 9 10 9 10 12 13 12 11 14 11 9 8 10 10 11 10 10 10 11 8 9 10 9 9 9 8 9 8 9
7 9 10 11 8 9 8 8 9 9 9 10 11 8 11 6 17 18 15 11 14 20 11 13 14 14 13 14 12 11 11 13 10 8 7 6 8 9 10 9 9 9 9
7 9 9 11 12 12 11 8 9 7 9 10 10 9 9 7 17 19 18 14 19 21 13 16 15 15 15 15 15 14 13 10 8 7 8 10 11 11 9 10 9 9 9
9 10 11 11 11 14 11 9 9 8 9 8 9 9 8 9 16 19 18 15 10 15 14 13 13 14 16 15 14 13 14 10 10 11 13 13 13 11 10 10 11 11 11
10 10 11 11 12 12 12 8 10 8 9 9 2 1 3 5 11 17 22 12 13 14 13 10 12 13 14 15 13 12 12 9 10 14 13 13 13 11 10 12 11 12 7
11 8 9 11 12 12 11 11 8 9 9 9 6 6 4 4 4 7 11 12 10 11 13 12 11 8 9 9 11 10 9 10 16 12 14 12 10 12 13 13 10 9 7
10 11 8 10 13 13 12 12 9 8 9 9 9 7 11 7 8 9 11 12 11 12 13 13 12 10 10 11 12 12 13 16 16 15 12 14 14 14 13 10 10 12 8
11 12 11 11 11 12 13 12 11 9 9 9 10 6 16 9 8 8 10 11 11 11 10 11 10 10 11 11 13 15 15 14 13 14 13 14 13 12 11 11 9 11 11
11 13 12 12 13 11 13 13 13 12 10 10 11 9 7 9 9 9 10 11 10 11 11 11 10 10 11 14 15 15 15 16 14 13 13 14 12 12 12 12 14 10 11
12 12 12 14 14 13 13 13 13 11 11 11 9 7 8 8 10 9 9 9 9 8 8 9 11 16 14 12 10 13 15 14 11 13 18 13 14 13 11 9 9 12 11
11 12 11 10 11 14 14 13 14 12 11 10 9 7 8 7 7 8 8 8 9 8 10 10 11 12 16 19 17 19 14 13 15 10 8 10 14 10 11 11 12 11 13
16 16 14 12 11 11 11 14 14 12 10 9 6 7 8 10 10 10 9 11 10 10 10 8 10 14 18 19 20 17 12 14 12 13 11 11 12 12 11 13 15 11 9
Wind_Direction
205 200 203 200 200 207 209 206 210 204 200 200 201 204 207 208 206 208 232 217 213 214 223 215 231 250 257 219 230 241 244 246 245 118 118 137 192 185 152 155 170 194 148
204 205 202 204 205 202 212 211 210 211 203 206 202 205 206 210 209 210 216 215 215 215 213 219 227 218 229 246 226 238 243 221 252 175 178 163 201 169 159 181 198 186 173
202 201 208 201 202 207 207 213 207 210 210 210 208 210 210 209 209 211 215 216 211 217 217 218 221 221 220 237 242 203 208 223 222 227 166 200 171 170 163 175 204 147 231
222 211 209 215 210 215 213 210 212 204 210 210 210 211 213 213 211 210 208 212 210 211 210 212 214 211 221 218 209 213 222 220 216 225 189 184 186 173 195 181 195 225 211
204 218 219 226 225 224 230 222 219 216 213 212 206 208 212 215 213 209 210 209 210 214 212 211 215 215 211 213 217 206 194 222 209 217 193 187 197 178 196 201 237 178 185
248 221 212 212 221 227 222 223 222 227 224 222 218 206 205 213 197 187 208 209 211 213 209 208 220 184 200 209 240 249 206 215 226 216 198 199 194 199 195 189 215 187 203
263 263 243 212 245 235 232 234 230 225 226 226 223 227 224 216 186 181 188 209 212 210 213 208 208 201 200 203 208 228 217 266 288 235 236 204 176 206 179 203 212 204 227
172 251 277 6 258 244 238 240 238 236 230 231 229 225 228 226 170 175 201 192 101 80 7 343 302 263 186 214 203 211 215 211 212 219 224 215 182 173 179 194 165 174 140
12 16 9 342 313 298 276 249 238 235 235 234 232 228 225 212 148 139 140 161 133 146 138 160 100 297 277 222 213 217 211 215 116 38 69 87 106 147 172 165 176 187 178
9 13 359 349 334 329 308 273 248 234 238 242 241 229 213 191 153 153 165 179 179 193 194 154 171 157 194 205 220 219 207 206 187 169 146 129 140 149 252 236 181 210 197
324 327 330 344 339 348 332 297 267 247 231 230 241 217 181 172 182 174 181 186 217 240 192 163 163 167 185 186 199 212 210 198 172 177 172 170 173 168 187 217 235 262 210
309 299 305 315 324 332 318 299 279 264 230 226 227 209 207 191 190 201 191 214 210 189 187 176 169 180 178 178 192 201 208 189 181 187 186 185 185 189 195 191 205 233 270
302 294 290 280 270 275 302 318 291 247 232 203 202 199 199 203 203 175 197 192 172 193 188 166 148 152 162 181 192 174 187 199 195 204 196 194 195 199 196 181 201 216 233
305 295 288 281 280 292 276 279 253 228 224 231 212 218 220 222 215 152 176 176 182 177 149 155 151 148 153 183 187 191 199 210 211 207 204 197 192 192 195 202 205 197 218
322 310 295 279 293 298 274 265 240 245 230 245 248 251 243 218 192 182 183 188 189 178 152 134 147 162 172 192 198 200 207 216 220 224 207 195 194 193 195 195 215 213 222
304 298 308 306 288 280 259 246 216 260 280 283 277 273 284 67 137 169 192 180 151 148 157 174 180 186 186 181 187 193 212 211 196 226 215 192 196 199 201 201 210 218 225
301 299 297 288 276 267 260 258 284 219 240 254 263 258 229 261 168 177 190 185 157 161 173 187 192 186 182 188 189 194 191 190 193 195 200 205 207 207 202 207 207 216 227
299 278 280 280 276 284 267 262 266 265 273 267 225 229 234 217 181 183 181 157 167 187 187 196 190 190 186 187 188 183 185 179 190 207 211 204 206 207 206 215 222 222 225
289 291 295 296 286 272 276 258 265 272 271 269 226 225 216 229 183 176 172 191 185 191 198 197 202 186 197 191 184 182 178 163 200 210 207 207 206 208 215 224 219 231 267
295 267 266 282 276 269 246 242 261 270 264 259 234 226 150 137 180 182 192 195 192 199 195 194 198 193 191 176 179 169 156 185 227 204 207 197 206 218 224 222 237 261 232
297 297 285 281 270 263 260 260 244 252 267 265 258 229 178 187 201 201 197 206 198 200 199 195 192 191 180 179 180 177 184 203 216 206 201 209 210 215 219 228 228 224 237
290 287 285 286 279 279 279 280 271 266 266 266 262 230 177 200 202 198 198 211 205 203 200 199 189 177 175 192 196 194 201 206 191 205 203 210 213 218 220 223 225 228 233
277 281 281 276 279 270 274 270 263 272 260 245 259 255 184 213 222 207 196 202 203 205 194 192 180 182 191 200 205 206 197 200 202 193 198 205 209 209 215 217 224 234 232
269 279 275 277 276 272 263 262 262 250 260 265 254 237 229 220 223 214 203 200 199 189 177 186 201 202 195 192 194 200 207 207 188 206 210 209 212 206 235 242 238 244 242
265 260 258 253 259 272 276 257 261 265 269 259 247 231 222 224 212 214 200 203 200 191 187 197 203 200 202 196 207 205 194 180 199 182 181 209 221 213 235 220 223 243 234
258 253 251 248 246 249 249 251 256 261 265 262 240 242 219 219 218 213 192 190 192 193 185 188 207 202 204 207 202 191 172 186 180 185 201 205 216 228 236 236 238 244 233